sat.trackr.live / text

‹ back to catalog

STARLINK-3521

NORAD 51742 · 2022-016AE

PAYLOAD ACTIVE UNKNOWN

§ Identity

Operator
Country
US
Launch date
2022-02-21
Launch site
AFETR
Launch vehicle
Mass (kg)
RCS (m²)

Purposes: comms

External: N2YO · Heavens-Above · Gunter

§ Orbital elements

Epoch: 2026-05-24T22:52:49.248192Z

Period
95.44 min
Inclination
53.2148°
Eccentricity
0.0001502
Mean motion
15.08841682 rev/d
Perigee alt
538.7 km
Apogee alt
540.8 km
Semi-major
6,917.9 km
B*
-3.1931e-6
RAAN
336.9524°
Arg perigee
93.4180°
Mean anomaly
266.6984°
Rev number
23,507

§ Raw data

STARLINK-35211 51742U 22016AE  26144.95334778 -.00000339  00000+0 -31931-5 0  99912 51742  53.2148 336.9524 0001502  93.4180 266.6984 15.08841682235070

JSON: /api/v1/satellites/51742 · /tle

For live sub-satellite position, see the globe view (requires WebGL).

§ Visibility from observer

Set your observer location to see the next 7 days of passes ≥ 10°. The values pass through the URL so the page stays shareable.

No JS? Fill the form by hand. The geolocation button needs JavaScript.